Haishao-1

operational
NORAD ID: 62190 Int'l Des: 2024-228 Owner: XXYW Country: CN
LEOCIRCULAR

About Haishao-1

Description loading...

Live Position

Loading 3D Globe...

Upcoming Passes

Altitude History

Altitude vs Time

uPlot chart will show altitude changes over time

Two-Line Element Set

1 62190U 24228A 25345.26769066 .00053819 00000-0 52927-3 0 9991
2 62190 42.9861 49.0199 0002202 358.2275 1.8582 15.65190866 58138
Epoch: Dec 11, 2025 • Age: 7 hours

Current Status

Altitude 373.2 km
Velocity 7.69 km/s
Sub-Earth Point 19.25°N, 72.95°W
Launch Date Dec 4, 2024
Age 1 years
Type other

Technical Details

Classification Payload
Mass 400.00 kg
Dry Mass 400.00 kg
Total Mass 400.00 kg
Length 1.00 m
Diameter 1.00 m
Span 6.00 m
Shape Box+3 pan
Manufacturer ZHWK/IMICAS
Bus Type ZK1
Phase Status In Orbit
Owner/State XXYW/CN

Large Constellations

Loading constellations...